This is the latest recevied weather packets stored in our database for station/object JA6YCL-13. If no packets are shown the sender has not sent any weather packets the latest 10 day(s).
| Time | Temp. | Humidity | Pressure | Rain* | Wind** | Luminosity | Snow |
|---|---|---|---|---|---|---|---|
| 1777968478 | 20° C | 41% | 1017.9 hPa | 0 mm | - | - | - |
| 1777967583 | 20.56° C | 39% | 1017.9 hPa | 0 mm | - | - | - |
| 1777966783 | 20.56° C | 38% | 1017.8 hPa | 0 mm | - | - | - |
| 1777965979 | 20.56° C | 38% | 1017.7 hPa | 0 mm | - | - | - |
| 1777965188 | 21.67° C | 37% | 1017.6 hPa | 0 mm | - | - | - |
| 1777964356 | 22.22° C | 36% | 1017.6 hPa | 0 mm | - | - | - |
| 1777963492 | 23.89° C | 34% | 1017.5 hPa | 0 mm | - | - | - |
| 1777962610 | 23.33° C | 33% | 1017.5 hPa | 0 mm | - | - | - |
| 1777961877 | 22.78° C | 31% | 1017.4 hPa | 0 mm | - | - | - |
| 1777961112 | 22.78° C | 29% | 1017.7 hPa | 0 mm | - | - | - |
| 1777960283 | 23.33° C | 28% | 1017.6 hPa | 0 mm | - | - | - |
| 1777959450 | 23.33° C | 27% | 1017.6 hPa | 0 mm | - | - | - |
| 1777958590 | 22.78° C | 25% | 1017.8 hPa | 0 mm | - | - | - |
| 1777957733 | 22.78° C | 24% | 1018 hPa | 0 mm | - | - | - |
| 1777956861 | 22.78° C | 24% | 1018.2 hPa | 0 mm | - | - | - |
| 1777956123 | 22.78° C | 25% | 1018.3 hPa | 0 mm | - | - | - |
| 1777955273 | 22.78° C | 25% | 1018.3 hPa | 0 mm | - | - | - |
| 1777954502 | 23.89° C | 24% | 1018.4 hPa | 0 mm | - | - | - |
| 1777953718 | 22.78° C | 25% | 1018.7 hPa | 0 mm | - | - | - |
| 1777952943 | 22.22° C | 26% | 1019 hPa | 0 mm | - | - | - |
| 1777952168 | 22.78° C | 28% | 1019.2 hPa | 0 mm | - | - | - |
| 1777951433 | 22.22° C | 27% | 1019.3 hPa | 0 mm | - | - | - |
| 1777950717 | 22.22° C | 26% | 1019.6 hPa | 0 mm | - | - | - |
| 1777949953 | 22.78° C | 23% | 1019.7 hPa | 0 mm | - | - | - |
| 1777949113 | 21.67° C | 28% | 1019.8 hPa | 0 mm | - | - | - |
* Rain latest hour (hover to see other rain measurements)
** Current wind speed in m/s (hover to see current wind gust speed)